TimeCST,TemperatureF,Dew PointF,Humidity,Sea Level PressureIn,VisibilityMPH,Wind Direction,Wind SpeedMPH,Gust SpeedMPH,PrecipitationIn,Events,Conditions,WindDirDegrees,DateUTC
12:56 AM,23.0,12.9,65,30.36,-9999.0,East,5.8,-,N/A,,Unknown,80,2013-01-15 06:56:00
1:56 AM,21.9,12.0,66,30.34,-9999.0,East,4.6,-,N/A,,Unknown,80,2013-01-15 07:56:00
2:56 AM,21.0,10.9,65,30.35,-9999.0,SE,5.8,-,N/A,,Unknown,130,2013-01-15 08:56:00
3:56 AM,18.0,12.9,81,30.35,-9999.0,Calm,Calm,-,N/A,,Unknown,0,2013-01-15 09:56:00
4:56 AM,16.0,12.0,84,30.35,-9999.0,NNE,3.5,-,N/A,,Unknown,30,2013-01-15 10:56:00
5:56 AM,14.0,10.0,84,30.36,-9999.0,North,3.5,-,N/A,,Unknown,360,2013-01-15 11:56:00
6:56 AM,12.9,10.0,88,30.36,-9999.0,Calm,Calm,-,N/A,,Unknown,0,2013-01-15 12:56:00
7:56 AM,12.9,9.0,84,30.36,-9999.0,Calm,Calm,-,N/A,,Unknown,0,2013-01-15 13:56:00
8:56 AM,17.1,12.0,81,30.36,-9999.0,Calm,Calm,-,N/A,,Unknown,0,2013-01-15 14:56:00
9:56 AM,24.1,16.0,71,30.36,-9999.0,Calm,Calm,-,N/A,,Unknown,0,2013-01-15 15:56:00
10:56 AM,27.0,10.9,51,30.35,-9999.0,Calm,Calm,-,N/A,,Unknown,0,2013-01-15 16:56:00
11:56 AM,30.0,12.0,47,30.32,-9999.0,Calm,Calm,-,N/A,,Unknown,0,2013-01-15 17:56:00
12:56 PM,33.1,12.0,42,30.28,-9999.0,NE,5.8,-,N/A,,Unknown,50,2013-01-15 18:56:00
1:56 PM,36.0,12.0,37,30.26,-9999.0,NNW,6.9,-,N/A,,Unknown,340,2013-01-15 19:56:00
2:56 PM,37.0,12.0,36,30.25,-9999.0,Calm,Calm,-,N/A,,Unknown,0,2013-01-15 20:56:00
3:56 PM,37.0,12.9,37,30.25,-9999.0,Variable,4.6,-,N/A,,Unknown,0,2013-01-15 21:56:00
4:56 PM,35.1,12.9,40,30.27,-9999.0,NW,5.8,-,N/A,,Unknown,320,2013-01-15 22:56:00
5:56 PM,33.1,14.0,46,30.27,-9999.0,Calm,Calm,-,N/A,,Unknown,0,2013-01-15 23:56:00
6:56 PM,30.9,14.0,50,30.27,-9999.0,SE,4.6,-,N/A,,Unknown,130,2013-01-16 00:56:00
7:56 PM,27.0,15.1,61,30.27,-9999.0,SSW,5.8,-,N/A,,Unknown,200,2013-01-16 01:56:00
8:56 PM,26.1,15.1,63,30.27,-9999.0,South,4.6,-,N/A,,Unknown,190,2013-01-16 02:56:00
9:56 PM,21.9,14.0,72,30.25,-9999.0,Calm,Calm,-,N/A,,Unknown,0,2013-01-16 03:56:00
10:56 PM,23.0,12.9,65,30.24,-9999.0,South,3.5,-,N/A,,Unknown,180,2013-01-16 04:56:00
11:56 PM,18.0,14.0,84,30.25,-9999.0,Calm,Calm,-,N/A,,Unknown,0,2013-01-16 05:56:00